SL-8 DEB, 21109

Orbit data source: Space-Track

SL-8 DEB, 21109 is space debris in LEO originally from a launch on Tue, 12 Feb 1991 UTC launched from the Plesetsk Missile And Space Complex (PKMTR). Debris objects in space refer to the collection of defunct objects orbiting the Earth. Examples of debris include non-operational satellites, rocket bodies, and fragments generated from explosions, collisions, or faulty payload assembly.

Loading next visibility...
Identifier
21109, 1991-009K
Orbit
LEO
Country
Flag of CISCIS
Related business
Manufacturer
Unknown
Mission
Spacecraft
Bus & Motor
Unknown
Mass
Unknown
Launch date (UTC)
1991-02-12 (35 years ago)
Launch vehicle
Unknown
Launch site
Plesetsk Missile And Space Complex (PKMTR)
Object type
Payload
Rocket body
Debris
Shape & HBR
Unknown shape, 0.6 m
Radar Cross Section
Medium (>0.1 m² and <1 m²)

Expand to show TLE details & history
Last TLE update: 12 hours ago

TLE from 12 hours ago
0 SL-8 DEB
1 21109U 91009K   26171.40665705  .00000073  00000-0  81020-3 0  9996
2 21109  74.0273 193.0803 0168075 311.3342 155.2822 12.20871571573796
Epoch: 2026-06-20T09:45Z
TLE epoch observation values (Epoch: 2026-06-20T09:45:35.169Z)
Latitude
66.62901°
Longitude
-83.17744°
Altitude
1,721.943 km
Speed
6.968 km/s
True Right ascension
22h 07m 21s
True Declination
66° 31' 07"
Sunlit
Object was in daylight at epoch
Visualization orbit readout
Latitude
Unknown
Longitude
Unknown
Altitude
Unknown
Speed
Unknown
Apparent Right ascension
Unknown
Apparent Declination
Unknown
Sunlit
N/A
Visualization observer readout
Local Sidereal Time
08:46:28
Azimuth
Unknown
Elevation
Unknown
Doppler factor
Unknown
Orbital elements
Apogee altitude
1,720.483 km
Perigee altitude
1,452.748 km
Semi-major axis
7,964.753 km
Eccentricity
0.01681
Inclination
74.0273°
RAAN
193.0803°
Arg. of periapsis
311.3342°
True anomaly
156.07244°
Mean anomaly
155.2822°
Eccentric anomaly
155.67881°
Mean motion
3.05341 °/min
Orbital period
117.9 mins
BSTAR
0.0008102
Loading maneuver chart data...
Computing Atmospheric mass density...
Loading historical data...
Loading historical data...
Loading historical data...
Loading historical data...
Loading historical data...
Loading historical data...
Loading historical data...

Documentation

Showing up to 5 results
|